TimeMST,TemperatureF,Dew PointF,Humidity,Sea Level PressureIn,VisibilityMPH,Wind Direction,Wind SpeedMPH,Gust SpeedMPH,PrecipitationIn,Events,Conditions,WindDirDegrees,DateUTC
12:15 AM,33.8,28.4,81,30.29,10.0,East,4.6,-,N/A,,Overcast,100,2012-12-10 07:15:00
12:55 AM,33.8,30.2,87,30.28,10.0,ENE,3.5,-,N/A,,Overcast,70,2012-12-10 07:55:00
1:15 AM,33.8,30.2,87,30.27,10.0,ENE,3.5,-,N/A,,Overcast,70,2012-12-10 08:15:00
1:35 AM,33.8,30.2,87,30.27,10.0,NNE,3.5,-,N/A,,Overcast,30,2012-12-10 08:35:00
1:55 AM,33.8,32.0,93,30.27,10.0,North,4.6,-,N/A,,Overcast,360,2012-12-10 08:55:00
2:55 AM,32.0,32.0,100,30.27,10.0,North,5.8,-,N/A,,Overcast,360,2012-12-10 09:55:00
3:15 AM,32.0,32.0,100,30.27,9.0,North,4.6,-,N/A,,Overcast,360,2012-12-10 10:15:00
3:35 AM,32.0,32.0,100,30.27,3.0,North,3.5,-,N/A,,Overcast,360,2012-12-10 10:35:00
3:55 AM,32.0,32.0,100,30.26,10.0,Calm,Calm,-,N/A,,Overcast,0,2012-12-10 10:55:00
4:15 AM,32.0,32.0,100,30.26,10.0,NNW,4.6,-,N/A,,Overcast,330,2012-12-10 11:15:00
4:55 AM,32.0,32.0,100,30.26,10.0,NW,4.6,-,N/A,,Overcast,310,2012-12-10 11:55:00
5:15 AM,32.0,32.0,100,30.25,10.0,NNW,3.5,-,N/A,,Overcast,330,2012-12-10 12:15:00
5:35 AM,32.0,32.0,100,30.25,10.0,North,3.5,-,N/A,,Overcast,350,2012-12-10 12:35:00
5:55 AM,32.0,32.0,100,30.26,10.0,NNW,4.6,-,N/A,,Overcast,340,2012-12-10 12:55:00
6:15 AM,32.0,32.0,100,30.26,10.0,NNW,4.6,-,N/A,,Overcast,340,2012-12-10 13:15:00
6:35 AM,32.0,32.0,100,30.26,10.0,NW,4.6,-,N/A,,Overcast,320,2012-12-10 13:35:00
6:55 AM,32.0,32.0,100,30.27,10.0,NW,5.8,-,N/A,,Overcast,310,2012-12-10 13:55:00
7:15 AM,32.0,32.0,100,30.27,10.0,NW,6.9,-,N/A,,Overcast,310,2012-12-10 14:15:00
7:35 AM,32.0,32.0,100,30.28,10.0,WNW,6.9,-,N/A,,Overcast,300,2012-12-10 14:35:00
7:55 AM,32.0,32.0,100,30.28,10.0,WNW,5.8,-,N/A,,Overcast,290,2012-12-10 14:55:00
8:15 AM,32.0,32.0,100,30.29,9.0,WNW,6.9,-,N/A,,Overcast,300,2012-12-10 15:15:00
8:35 AM,32.0,32.0,100,30.29,9.0,WNW,5.8,-,N/A,,Overcast,300,2012-12-10 15:35:00
8:55 AM,32.0,32.0,100,30.30,10.0,NNW,5.8,-,N/A,,Overcast,330,2012-12-10 15:55:00
9:15 AM,32.0,32.0,100,30.30,10.0,NW,5.8,-,N/A,,Overcast,320,2012-12-10 16:15:00
9:35 AM,32.0,32.0,100,30.31,10.0,NW,5.8,-,N/A,,Overcast,310,2012-12-10 16:35:00
9:55 AM,32.0,32.0,100,30.31,10.0,WNW,6.9,-,N/A,,Mostly Cloudy,300,2012-12-10 16:55:00
10:15 AM,32.0,32.0,100,30.31,10.0,NW,4.6,-,N/A,,Mostly Cloudy,320,2012-12-10 17:15:00
10:35 AM,32.0,32.0,100,30.32,10.0,NW,5.8,-,N/A,,Mostly Cloudy,310,2012-12-10 17:35:00
10:55 AM,33.8,32.0,93,30.32,10.0,WNW,6.9,-,N/A,,Overcast,300,2012-12-10 17:55:00
11:15 AM,33.8,32.0,93,30.32,10.0,NW,5.8,-,N/A,,Overcast,310,2012-12-10 18:15:00
11:55 AM,35.6,32.0,87,30.31,10.0,West,4.6,-,N/A,,Scattered Clouds,280,2012-12-10 18:55:00
12:15 PM,35.6,32.0,87,30.30,10.0,NNW,5.8,-,N/A,,Partly Cloudy,330,2012-12-10 19:15:00
12:35 PM,37.4,32.0,81,30.29,10.0,WNW,6.9,-,N/A,,Clear,300,2012-12-10 19:35:00
12:55 PM,37.4,32.0,81,30.29,10.0,NW,6.9,-,N/A,,Clear,320,2012-12-10 19:55:00
1:15 PM,37.4,32.0,81,30.28,10.0,NW,5.8,-,N/A,,Clear,320,2012-12-10 20:15:00
1:35 PM,39.2,32.0,75,30.27,10.0,NW,4.6,-,N/A,,Clear,320,2012-12-10 20:35:00
1:55 PM,39.2,32.0,75,30.26,10.0,NNW,3.5,-,N/A,,Clear,330,2012-12-10 20:55:00
2:35 PM,41.0,32.0,70,30.24,10.0,North,9.2,-,N/A,,Clear,10,2012-12-10 21:35:00
2:55 PM,41.0,32.0,70,30.23,10.0,North,5.8,-,N/A,,Clear,350,2012-12-10 21:55:00
3:15 PM,41.0,32.0,70,30.22,10.0,NNW,6.9,-,N/A,,Clear,340,2012-12-10 22:15:00
3:35 PM,41.0,32.0,70,30.22,10.0,NNW,6.9,-,N/A,,Clear,340,2012-12-10 22:35:00
3:55 PM,41.0,32.0,70,30.22,10.0,NNW,4.6,-,N/A,,Clear,340,2012-12-10 22:55:00
4:15 PM,41.0,32.0,70,30.21,10.0,NNW,5.8,-,N/A,,Clear,330,2012-12-10 23:15:00
4:55 PM,41.0,32.0,70,30.20,10.0,NW,3.5,-,N/A,,Clear,320,2012-12-10 23:55:00
5:15 PM,39.2,33.8,81,30.19,10.0,West,3.5,-,N/A,,Scattered Clouds,280,2012-12-11 00:15:00
5:55 PM,39.2,33.8,81,30.20,10.0,WNW,5.8,-,N/A,,Overcast,290,2012-12-11 00:55:00
6:15 PM,39.2,33.8,81,30.20,10.0,WNW,6.9,-,N/A,,Overcast,290,2012-12-11 01:15:00
6:35 PM,39.2,33.8,81,30.19,10.0,West,9.2,-,N/A,,Overcast,280,2012-12-11 01:35:00
6:55 PM,39.2,32.0,75,30.19,10.0,West,8.1,-,N/A,,Overcast,270,2012-12-11 01:55:00
7:15 PM,37.4,32.0,81,30.19,10.0,West,8.1,-,N/A,,Overcast,280,2012-12-11 02:15:00
7:35 PM,37.4,32.0,81,30.19,10.0,WNW,8.1,-,N/A,,Overcast,290,2012-12-11 02:35:00
7:55 PM,37.4,32.0,81,30.19,10.0,WNW,8.1,-,N/A,,Overcast,300,2012-12-11 02:55:00
8:15 PM,37.4,32.0,81,30.19,10.0,NW,5.8,-,N/A,,Overcast,310,2012-12-11 03:15:00
8:35 PM,37.4,33.8,87,30.19,10.0,NW,3.5,-,N/A,,Scattered Clouds,310,2012-12-11 03:35:00
8:55 PM,35.6,33.8,93,30.18,10.0,Calm,Calm,-,N/A,,Scattered Clouds,0,2012-12-11 03:55:00
9:15 PM,35.6,33.8,93,30.19,10.0,NW,3.5,-,N/A,,Overcast,320,2012-12-11 04:15:00
9:35 PM,35.6,33.8,93,30.18,10.0,NW,4.6,-,N/A,,Overcast,320,2012-12-11 04:35:00
9:55 PM,35.6,32.0,87,30.18,10.0,Calm,Calm,-,N/A,,Scattered Clouds,0,2012-12-11 04:55:00
10:15 PM,32.0,32.0,100,30.18,10.0,Calm,Calm,-,N/A,,Mostly Cloudy,0,2012-12-11 05:15:00
10:35 PM,32.0,32.0,100,30.18,10.0,Calm,Calm,-,N/A,,Mostly Cloudy,0,2012-12-11 05:35:00
10:55 PM,32.0,32.0,100,30.18,10.0,WSW,3.5,-,N/A,,Partly Cloudy,250,2012-12-11 05:55:00
11:15 PM,30.2,30.2,100,30.18,9.0,Calm,Calm,-,N/A,,Clear,0,2012-12-11 06:15:00
11:35 PM,32.0,32.0,100,30.17,9.0,Calm,Calm,-,N/A,,Clear,0,2012-12-11 06:35:00
11:55 PM,30.2,30.2,100,30.16,7.0,Calm,Calm,-,N/A,,Clear,0,2012-12-11 06:55:00